EW6193 Weather Reports


time (UTC)temp
C
wind
direction
speed
KPH
gust
KPH
rain 1hr
cm
rain 24hr
cm
rain mn
cm
humidity
%
barometer
mb
20260509161523 12 271 3.2 8.0 0.00 0.03 0.00 67 994.3
20260509160023 12 269 4.8 11.3 0.00 0.05 0.00 68 994.2
20260509154520 12 250 6.4 11.3 0.00 0.05 0.00 68 994.3
20260509153017 12 228 6.4 14.5 0.00 0.05 0.00 67 994.0
20260509151516 12 271 8.0 14.5 0.00 0.05 0.00 67 994.1
20260509150019 11 247 6.4 9.7 0.00 0.05 0.00 68 994.4
20260509144518 11 241 4.8 8.0 0.00 0.05 0.00 68 994.6
20260509143009 12 262 3.2 9.7 0.00 0.05 0.00 66 994.9
20260509141510 12 267 6.4 17.7 0.00 0.05 0.00 66 994.9
20260509140008 12 264 6.4 11.3 0.00 0.05 0.00 66 994.9
20260509134510 12 269 6.4 14.5 0.00 0.05 0.00 65 995.0
20260509133004 12 271 6.4 14.5 0.00 0.05 0.00 64 995.0
20260509131502 13 244 8.0 19.3 0.00 0.05 0.00 63 994.8
20260509130059 13 259 8.0 25.7 0.00 0.05 0.00 63 994.7
20260509124558 12 257 8.0 19.3 0.00 0.05 0.00 64 994.8
20260509123055 13 226 11.3 20.9 0.00 0.05 0.00 62 994.6
20260509121553 12 278 9.7 19.3 0.00 0.05 0.00 65 994.6
20260509120049 12 229 9.7 17.7 0.00 0.08 0.05 66 994.4
20260509114548 12 241 6.4 11.3 0.00 0.08 0.05 65 994.6
20260509113051 12 245 4.8 12.9 0.00 0.08 0.05 66 994.8
20260509111546 11 260 11.3 19.3 0.00 0.08 0.05 68 994.6
20260509110044 11 264 3.2 6.4 0.00 0.10 0.05 70 995.2
20260509104544 11 268 1.6 8.0 0.00 0.10 0.05 69 995.1
20260509103042 12 238 3.2 11.3 0.00 0.10 0.05 68 995.1
20260509101550 12 260 1.6 8.0 0.00 0.10 0.05 68 995.1
20260509100041 12 269 3.2 9.7 0.00 0.10 0.05 66 995.1
20260509094540 12 244 3.2 14.5 0.00 0.10 0.05 64 995.0
20260509093036 12 229 8.0 17.7 0.00 0.10 0.05 64 994.9
20260509091533 12 251 8.0 16.1 0.00 0.10 0.05 65 995.1
20260509090031 11 249 6.4 11.3 0.00 0.10 0.05 69 995.3
20260509084530 11 241 1.6 11.3 0.00 0.10 0.05 70 995.3
20260509083028 11 248 0.0 4.8 0.00 0.10 0.05 70 995.2
20260509081531 11 257 0.0 3.2 0.00 0.10 0.05 70 995.1
20260509080024 12 246 1.6 4.8 0.00 0.64 0.05 69 995.1
20260509074523 12 245 0.0 6.4 0.00 0.64 0.05 69 995.1
20260509073019 12 248 3.2 11.3 0.00 0.64 0.05 69 995.1
20260509071518 13 249 4.8 9.7 0.00 0.64 0.05 69 995.0
20260509070016 13 260 3.2 11.3 0.00 1.40 0.05 69 995.1
20260509064515 13 259 1.6 9.7 0.00 1.40 0.05 70 995.0
20260509063013 13 255 3.2 11.3 0.00 1.40 0.05 69 994.8
20260509061511 13 252 4.8 17.7 0.00 1.40 0.05 69 994.8
20260509060010 14 252 8.0 22.5 0.00 1.91 0.05 69 994.5
20260509054508 14 246 6.4 19.3 0.00 1.91 0.05 69 994.5
20260509053006 14 235 6.4 17.7 0.00 1.91 0.05 69 994.4
20260509051504 15 264 8.0 12.9 0.00 1.91 0.05 67 994.3
20260509050004 15 272 4.8 9.7 0.00 2.54 0.05 65 994.5
20260509044504 16 218 4.8 11.3 0.00 2.54 0.05 63 994.4
20260509043106 17 262 6.4 16.1 0.00 2.54 0.05 61 994.4
20260509041600 17 222 6.4 14.5 0.00 2.54 0.05 61 994.5
20260509040059 17 244 6.4 14.5 0.00 2.67 0.05 59 994.6
20260509034558 18 275 3.2 14.5 0.00 2.67 0.05 60 994.5
20260509033059 17 259 3.2 11.3 0.00 2.67 0.05 61 994.5
20260509031554 18 262 9.7 22.5 0.00 2.67 0.05 60 994.4
20260509030053 17 250 8.0 14.5 0.00 2.69 0.05 63 994.2
20260509024552 17 245 4.8 11.3 0.00 2.69 0.05 64 994.3
20260509023051 17 256 3.2 9.7 0.00 2.69 0.05 65 994.2
20260509021650 17 261 4.8 11.3 0.00 2.69 0.05 65 994.1
20260509020049 17 255 4.8 12.9 0.00 2.69 0.05 63 994.0
20260509014549 18 257 4.8 11.3 0.00 2.69 0.05 62 993.9
20260509013054 18 250 4.8 11.3 0.00 2.69 0.05 62 994.0
20260509011546 18 257 1.6 8.0 0.00 2.69 0.05 67 994.1
20260509010044 18 275 4.8 12.9 0.00 2.74 0.05 68 994.2
20260509004556 18 264 1.6 4.8 0.00 2.74 0.05 71 994.2
20260509003044 17 277 4.8 9.7 0.00 2.74 0.05 69 994.2
20260509001549 18 250 3.2 9.7 0.00 2.74 0.05 68 994.3
20260509000043 18 259 6.4 9.7 0.00 2.77 0.05 69 994.5
20260508234541 17 229 4.8 11.3 0.00 2.77 0.05 75 994.7
20260508233036 17 269 3.2 11.3 0.00 2.77 0.05 76 994.8
20260508231535 17 273 3.2 9.7 0.00 2.77 0.05 75 995.0
20260508230037 17 265 4.8 9.7 0.00 2.84 0.05 75 995.2
20260508224546 17 252 4.8 14.5 0.00 2.84 0.05 76 995.2
20260508223043 16 267 1.6 8.0 0.00 2.84 0.05 78 994.8
20260508221531 16 289 4.8 12.9 0.00 2.84 0.05 78 994.7
20260508220031 16 308 3.2 14.5 0.00 2.84 0.05 78 994.7
20260508214549 16 289 4.8 16.1 0.00 2.84 0.05 77 994.7
20260508213027 17 275 4.8 14.5 0.00 2.84 0.05 75 994.8
20260508211525 17 335 3.2 17.7 0.00 2.84 0.05 75 994.7
20260508210024 16 269 4.8 11.3 0.00 3.05 0.05 76 994.6
20260508204523 16 269 4.8 12.9 0.00 3.05 0.05 75 994.4
20260508203020 15 272 6.4 16.1 0.00 3.05 0.05 78 994.1
20260508201520 15 278 6.4 19.3 0.00 3.05 0.05 79 993.9
20260508200022 15 276 8.0 17.7 0.00 3.15 0.05 77 993.8
20260508194519 16 256 3.2 16.1 0.00 3.15 0.05 73 993.3
20260508193017 16 246 9.7 22.5 0.00 3.15 0.05 72 993.2
20260508191517 15 276 6.4 16.1 0.00 3.15 0.05 75 992.9
20260508190036 15 259 3.2 12.9 0.00 3.15 0.05 76 992.4
20260508184527 15 255 3.2 17.7 0.00 3.15 0.05 74 992.4
20260508183026 15 277 8.0 14.5 0.00 3.15 0.05 77 992.7
20260508181512 15 252 0.0 1.6 0.00 3.15 0.05 79 993.4
20260508180012 15 252 0.0 0.0 0.00 3.20 0.05 78 993.7
20260508174511 15 252 0.0 14.5 0.00 3.20 0.05 76 993.6
20260508173013 15 285 6.4 25.7 0.00 3.20 0.05 74 993.2
20260508171510 15 252 17.7 29.0 0.00 3.20 0.05 75 993.2
20260508170010 15 334 9.7 20.9 0.03 3.25 0.05 77 992.9
20260508164519 15 302 8.0 19.3 0.03 3.25 0.05 79 993.2
20260508163013 15 250 9.7 22.5 0.03 3.25 0.05 77 993.1